When you browse on this site, cookies collect data to enhance your experience and personalize the content and advertising you see.
Visit our Privacy Policy to learn more. By continuing to use the site, you agree to this use of cookies and data.
  • In Portugal
  • List of Countries
  • For 7 days
  • Water Temperature
  • Weather Map
  • Weather Widgets
  • user-avatar
    Login

    Hourly Weather La Massana

    Today, 15 October, Tuesday

    Time Temperature Precipitation Wind Pressure Humidity
    00:00 +7°C° 0 mm 1 mps 607 mmHg 97%
    01:00 +6°C° 0.2 mm 1 mps 606 mmHg 96%
    02:00 +5°C° 0.2 mm 1 mps 606 mmHg 95%
    03:00 +4°C° 0.2 mm 1 mps 606 mmHg 94%
    04:00 +3°C° 0.5 mm 1 mps 606 mmHg 95%
    05:00 +2°C° 0.5 mm 2 mps 606 mmHg 96%
    06:00 +1°C° 0 mm 2 mps 606 mmHg 96%
    07:00 +2°C° 0.1 mm 2 mps 607 mmHg 90%
    08:00 +3°C° 0.1 mm 2 mps 607 mmHg 85%
    09:00 +5°C° 0.1 mm 1 mps 608 mmHg 80%
    10:00 +5°C° 0 mm 2 mps 609 mmHg 70%
    11:00 +7°C° 0 mm 2 mps 610 mmHg 61%
    12:00 +8°C° 0 mm 2 mps 611 mmHg 52%
    13:00 +8°C° 0 mm 2 mps 611 mmHg 51%
    14:00 +8°C° 0 mm 2 mps 610 mmHg 51%
    15:00 +8°C° 0 mm 2 mps 610 mmHg 51%
    16:00 +7°C° 0 mm 1 mps 610 mmHg 60%
    17:00 +6°C° 0 mm 1 mps 609 mmHg 70%
    18:00 +4°C° 0 mm 1 mps 609 mmHg 80%
    19:00 +4°C° 0 mm 1 mps 609 mmHg 81%
    20:00 +3°C° 0 mm 1 mps 609 mmHg 82%
    21:00 +3°C° 0 mm 1 mps 609 mmHg 83%
    22:00 +3°C° 0 mm 1 mps 609 mmHg 84%
    23:00 +3°C° 0 mm 1 mps 609 mmHg 85%

    Tomorrow, 16 October, Wednesday

    Time Temperature Precipitation Wind Pressure Humidity
    00:00 +3°C° 0 mm 1 mps 609 mmHg 85%
    01:00 +3°C° 0 mm 1 mps 609 mmHg 83%
    02:00 +3°C° 0 mm 1 mps 609 mmHg 81%
    03:00 +3°C° 0 mm 1 mps 609 mmHg 79%
    04:00 +3°C° 0 mm 1 mps 608 mmHg 78%
    05:00 +2°C° 0 mm 1 mps 608 mmHg 78%
    06:00 +1°C° 0 mm 2 mps 608 mmHg 77%
    07:00 +3°C° 0 mm 2 mps 609 mmHg 68%
    08:00 +5°C° 0 mm 2 mps 609 mmHg 59%
    09:00 +7°C° 0 mm 2 mps 610 mmHg 50%
    10:00 +8°C° 0 mm 2 mps 611 mmHg 47%
    11:00 +9°C° 0 mm 2 mps 611 mmHg 45%
    12:00 +12°C° 0 mm 2 mps 611 mmHg 42%
    13:00 +10°C° 0 mm 2 mps 611 mmHg 43%
    14:00 +10°C° 0 mm 2 mps 610 mmHg 45%
    15:00 +10°C° 0 mm 2 mps 610 mmHg 46%
    16:00 +9°C° 0 mm 1 mps 609 mmHg 52%
    17:00 +7°C° 0 mm 1 mps 609 mmHg 59%
    18:00 +6°C° 0 mm 1 mps 608 mmHg 65%
    19:00 +5°C° 0 mm 1 mps 608 mmHg 65%
    20:00 +5°C° 0 mm 1 mps 608 mmHg 65%
    21:00 +5°C° 0 mm 1 mps 608 mmHg 65%
    22:00 +5°C° 0 mm 1 mps 608 mmHg 66%
    23:00 +5°C° 0 mm 1 mps 608 mmHg 66%

    Day after tomorrow, 17 October, Thursday

    Time Temperature Precipitation Wind Pressure Humidity
    00:00 +5°C° 0 mm 1 mps 608 mmHg 66%
    01:00 +5°C° 0 mm 1 mps 608 mmHg 66%
    02:00 +5°C° 0 mm 1 mps 608 mmHg 66%
    03:00 +5°C° 0 mm 1 mps 608 mmHg 66%
    04:00 +5°C° 0 mm 1 mps 608 mmHg 68%
    05:00 +5°C° 0 mm 1 mps 608 mmHg 70%
    06:00 +5°C° 0 mm 1 mps 608 mmHg 71%
    07:00 +7°C° 0 mm 1 mps 609 mmHg 66%
    08:00 +9°C° 0 mm 1 mps 610 mmHg 61%
    09:00 +12°C° 0 mm 1 mps 612 mmHg 55%
    10:00 +12°C° 0 mm 2 mps 612 mmHg 54%
    11:00 +13°C° 0 mm 2 mps 612 mmHg 53%
    12:00 +14°C° 0 mm 2 mps 613 mmHg 52%
    13:00 +13°C° 0 mm 2 mps 612 mmHg 53%
    14:00 +13°C° 0 mm 2 mps 612 mmHg 54%
    15:00 +12°C° 0 mm 2 mps 611 mmHg 55%
    16:00 +10°C° 0 mm 1 mps 610 mmHg 61%
    17:00 +8°C° 0 mm 1 mps 610 mmHg 67%
    18:00 +7°C° 0 mm 1 mps 609 mmHg 73%
    19:00 +6°C° 0 mm 1 mps 609 mmHg 74%
    20:00 +6°C° 0 mm 1 mps 609 mmHg 74%
    21:00 +5°C° 0 mm 1 mps 609 mmHg 75%
    22:00 +5°C° 0 mm 1 mps 609 mmHg 77%
    23:00 +5°C° 0 mm 1 mps 609 mmHg 80%

    18 October, Friday

    Time Temperature Precipitation Wind Pressure Humidity
    00:00 +5°C° 0 mm 1 mps 609 mmHg 83%
    01:00 +5°C° 0 mm 1 mps 609 mmHg 84%
    02:00 +4°C° 0 mm 1 mps 608 mmHg 85%
    03:00 +4°C° 0 mm 1 mps 608 mmHg 87%
    04:00 +5°C° 0 mm 1 mps 608 mmHg 86%
    05:00 +5°C° 0 mm 1 mps 608 mmHg 86%
    06:00 +5°C° 0 mm 1 mps 608 mmHg 85%
    07:00 +7°C° 0 mm 1 mps 609 mmHg 78%
    08:00 +9°C° 0 mm 1 mps 610 mmHg 71%
    09:00 +10°C° 0 mm 0 mps 611 mmHg 63%
    10:00 +11°C° 0 mm 1 mps 612 mmHg 61%
    11:00 +12°C° 0 mm 1 mps 612 mmHg 58%
    12:00 +13°C° 0 mm 1 mps 612 mmHg 55%
    13:00 +13°C° 0 mm 1 mps 612 mmHg 58%
    14:00 +12°C° 0 mm 1 mps 611 mmHg 60%
    15:00 +12°C° 0 mm 1 mps 611 mmHg 62%
    16:00 +10°C° 0 mm 1 mps 610 mmHg 71%
    17:00 +8°C° 0 mm 1 mps 609 mmHg 80%
    18:00 +7°C° 0 mm 1 mps 608 mmHg 89%
    19:00 +7°C° 0 mm 1 mps 608 mmHg 89%
    20:00 +7°C° 0 mm 1 mps 608 mmHg 89%
    21:00 +6°C° 0 mm 1 mps 608 mmHg 89%
    22:00 +6°C° 0 mm 1 mps 608 mmHg 89%
    23:00 +6°C° 0 mm 1 mps 608 mmHg 88%

    19 October, Saturday

    Time Temperature Precipitation Wind Pressure Humidity
    00:00 +6°C° 0 mm 1 mps 608 mmHg 88%
    01:00 +6°C° 0 mm 1 mps 607 mmHg 89%
    02:00 +5°C° 0 mm 1 mps 607 mmHg 90%
    03:00 +5°C° 0 mm 1 mps 606 mmHg 91%
    04:00 +5°C° 0 mm 1 mps 606 mmHg 92%
    05:00 +5°C° 0 mm 1 mps 606 mmHg 93%
    06:00 +5°C° 0 mm 1 mps 606 mmHg 93%
    07:00 +6°C° 0 mm 1 mps 607 mmHg 87%
    08:00 +8°C° 0 mm 1 mps 608 mmHg 80%
    09:00 +9°C° 0 mm 1 mps 608 mmHg 74%
    10:00 +9°C° 0.1 mm 2 mps 608 mmHg 70%
    11:00 +9°C° 0.1 mm 2 mps 608 mmHg 66%
    12:00 +10°C° 0.1 mm 2 mps 608 mmHg 62%
    13:00 +9°C° 0.1 mm 2 mps 608 mmHg 65%
    14:00 +9°C° 0.1 mm 2 mps 608 mmHg 67%
    15:00 +8°C° 0.1 mm 2 mps 607 mmHg 70%
    16:00 +8°C° 0.2 mm 1 mps 607 mmHg 78%
    17:00 +6°C° 0.2 mm 1 mps 606 mmHg 85%
    18:00 +5°C° 0.2 mm 1 mps 606 mmHg 93%
    19:00 +5°C° 0.2 mm 1 mps 606 mmHg 93%
    20:00 +4°C° 0.2 mm 1 mps 606 mmHg 93%
    21:00 +3°C° 0.2 mm 0 mps 606 mmHg 93%
    22:00 +2°C° 0.1 mm 0 mps 606 mmHg 93%
    23:00 +2°C° 0.1 mm 0 mps 606 mmHg 92%

    20 October, Sunday

    Time Temperature Precipitation Wind Pressure Humidity
    00:00 +2°C° 0.1 mm 0 mps 606 mmHg 92%
    01:00 +1°C° 0 mm 0 mps 606 mmHg 91%
    02:00 +1°C° 0 mm 0 mps 605 mmHg 91%
    03:00 +1°C° 0 mm 0 mps 605 mmHg 90%
    04:00 0°C° 0 mm 0 mps 605 mmHg 90%
    05:00 +1°C° 0 mm 1 mps 605 mmHg 89%
    06:00 +1°C° 0 mm 1 mps 605 mmHg 89%
    07:00 +3°C° 0 mm 1 mps 606 mmHg 85%
    08:00 +4°C° 0 mm 1 mps 606 mmHg 80%
    09:00 +6°C° 0 mm 1 mps 607 mmHg 75%
    10:00 +6°C° 0.2 mm 1 mps 607 mmHg 73%
    11:00 +6°C° 0.2 mm 2 mps 607 mmHg 71%
    12:00 +6°C° 0.2 mm 2 mps 607 mmHg 69%
    13:00 +7°C° 0.4 mm 1 mps 607 mmHg 75%
    14:00 +6°C° 0.4 mm 1 mps 606 mmHg 82%
    15:00 +5°C° 0.4 mm 1 mps 605 mmHg 88%
    16:00 +4°C° 0.7 mm 1 mps 605 mmHg 91%
    17:00 +3°C° 0.7 mm 1 mps 605 mmHg 93%
    18:00 +3°C° 0.7 mm 1 mps 605 mmHg 96%
    19:00 +2°C° 0.8 mm 1 mps 605 mmHg 96%
    20:00 +2°C° 0.8 mm 1 mps 605 mmHg 96%
    21:00 +2°C° 0.8 mm 1 mps 605 mmHg 96%
    22:00 +2°C° 0.2 mm 1 mps 605 mmHg 96%
    23:00 +2°C° 0.2 mm 1 mps 605 mmHg 95%
    Show more